View from above orbital plane
|
View from above satellite
|
Ground track
|
The orbit data is extracted from the following two-line orbital elements,
1 00059U 60013B 21059.49904585 .00000090 00000-0 10374-6 0 9995
2 00059 28.2511 342.9532 0189195 275.2013 82.6969 13.52982324981148
Epoch (UTC): | 28 February 2021 11:58:37 |
Eccentricity: | 0.0189195 |
inclination: | 28.2511° |
perigee height: | 920 km |
apogee height: | 1202 km |
right ascension of ascending node: | 342.9532° |
argument of perigee: | 275.2013° |
revolutions per day: | 13.52982324 |
mean anomaly at epoch: | 82.6969° |
orbit number at epoch: | 98114 |
The dashed part of the orbit path shows where the satellite is in the earth's shadow,
|
|